Notices

What's New in latest Release from April 7th, 2021:

- Updated Glossary, including Speed of Maximum Gust, and Total Hourly Precipitation

- Updated national and regional climate services offices contacts and prices information

- Addition of station inventory lists for 1981-2010, 1971-2000, and 1961-1990 Normals.

If you haven't already, please take our survey and provide feedback about our website: https://eccc.sondage-survey.ca/f/LanguageSelection.aspx?s=442ca660-fcf1-47c0-95a9-59707d6fd709

Hourly Data Report for August 10, 2004

SHERBROOKE A
QUEBEC

45°26'00.000" N
71°41'00.000" W
241.40 m
7028124
71610
YSC

Download Data

Hourly Data (August 2004)
Hourly Data Report for August 10, 2004
TIME
LST
Temp Definition
°C
Dew Point Definition
°C
Rel Hum Definition
%
Precip. Amount Definition
mm

Wind Dir Definition
10's deg

Wind Spd Definition
km/h
Visibility Definition
km
Stn Press Definition
kPa
Hmdx Definition


Wind Chill Definition


Weather Definition


00:00 11.3 10.3 94   8 6 15.0 98.70      
01:00 11.4 10.4 94   8 6 15.0 98.68      
02:00 11.1 9.9 92   9 6 15.0 98.66      
03:00 10.5 9.6 94   11 4 15.0 98.65      
04:00 10.5 9.8 95     0 15.0 98.69      
05:00 10.5 9.9 96   8 4 15.0 98.68      
06:00 12.5 11.2 92   9 6 15.0 98.67      
07:00 15.0 12.9 87   11 4 24.1 98.65     Mostly Cloudy
08:00 16.7 14.3 86     0 24.1 98.64     Mostly Cloudy
09:00 19.2 14.9 76     0 24.1 98.60     Mostly Cloudy
10:00 22.9 15.0 61   24 6 24.1 98.58 27   Mostly Cloudy
11:00 25.4 14.8 52   21 15 24.1 98.51 29   Mainly Clear
12:00 26.2 13.7 46   20 9 24.1 98.41 29   Mostly Cloudy
13:00 26.4 13.9 46   20 17 24.1 98.33 30   Mostly Cloudy
14:00 25.4 14.5 51   20 9 24.1 98.26 29   Mostly Cloudy
15:00 25.6 14.4 50   19 19 24.1 98.22 29   Mostly Cloudy
16:00 26.4 15.0 50   18 15 19.3 98.18 30   Mostly Cloudy
17:00 24.4 14.8 55   18 13 15.0 98.14 28    
18:00 23.3 15.5 62   17 7 15.0 98.13 28    
19:00 22.2 15.4 65   16 6 15.0 98.19 26    
20:00 21.6 15.6 69   22 9 12.9 98.22 26    
21:00 19.1 16.6 85     0 9.7 98.20      
22:00 18.7 16.4 86   3 4 8.0 98.17      
23:00 18.9 16.3 85   12 6 8.0 98.13      

Notes on Data Quality.

Legend

  • E = Estimated
  • M = Missing
  • NA = Not Available*
  • [empty] = Indicates an unobserved value
Date modified: